Phoenix Deer Valley, AZ

8:33 AM MST on November 12, 2019 (GMT -0700)
Phoenix-Deer Valley Municipal

Weather History for KDVT - October, 2019

Change the Weather History Date:

Sunday, October 13, 2019

  Actual Average Record
Temperature  
Mean Temperature 73 °F -  
Max Temperature 87 °F 85 °F 98 °F (1999)
Min Temperature 59 °F 64 °F 45 °F (2008)
Cooling Degree Days 8    
Growing Degree Days 23 (Base 50)    
Moisture  
Dew Point 33 °F    
Average Humidity 24    
Maximum Humidity 39    
Minimum Humidity 12    
Precipitation  
Precipitation 0.00 in - - ()
Sea Level Pressure  
Sea Level Pressure 29.82 in    
Wind  
Wind Speed 4 mph ()    
Max Wind Speed 10 mph    
Max Gust Speed -    
Visibility 10.0 miles    
Events      
Averages and records for this station are not official NWS values.
T = Trace of Precipitation, MM = Missing Value Source: Averaged Metar Reports

Daily Weather History Graph

Daily Weather History Graph

Search for Another Location

Airport or City:

Astronomy

Oct. 13, 2019 Rise Set
Actual Time 6:31 AM MST 5:57 PM MST
Civil Twilight 6:06 AM MST 6:22 PM MST
Nautical Twilight 5:37 AM MST 6:51 PM MST
Astronomical Twilight 5:08 AM MST 7:19 PM MST
Moon 6:18 PM MST (10/13) 6:13 AM MST (10/13)
Length of Visible Light 12h 15m
Length of Day
11h 25m
Full, 100% of the Moon is Illuminated
Oct 13
Full
Oct 13
Full
Oct 21
Last Quarter
Oct 27
New
Nov 4
First Quarter

Hourly Weather History & Observations

Time (MST) Temp. Dew Point Humidity Pressure Visibility Wind Dir Wind Speed Gust Speed Precip Events Conditions
12:53 AM 70.0 °F 34.0 °F 27% 29.82 in 10.0 mi NE 6.9 mph - N/A   Clear
1:53 AM 64.0 °F 34.0 °F 33% 29.83 in 10.0 mi Calm Calm - N/A   Clear
2:53 AM 64.9 °F 34.0 °F 32% 29.82 in 10.0 mi NE 4.6 mph - N/A   Clear
3:53 AM 60.1 °F 34.0 °F 38% 29.83 in 10.0 mi Calm Calm - N/A   Clear
4:53 AM 62.1 °F 33.1 °F 34% 29.83 in 10.0 mi NNE 6.9 mph - N/A   Clear
5:53 AM 59.0 °F 34.0 °F 39% 29.84 in 10.0 mi Calm Calm - N/A   Clear
6:53 AM 63.0 °F 34.0 °F 34% 29.85 in 10.0 mi North 5.8 mph - N/A   Clear
7:53 AM 66.9 °F 35.1 °F 31% 29.87 in 10.0 mi Calm Calm - N/A   Clear
8:53 AM 73.0 °F 35.1 °F 25% 29.88 in 10.0 mi Calm Calm - N/A   Clear
9:53 AM 75.9 °F 37.0 °F 24% 29.89 in 10.0 mi South 6.9 mph - N/A   Clear
10:53 AM 80.1 °F 37.0 °F 21% 29.87 in 10.0 mi Variable 5.8 mph - N/A   Clear
11:53 AM 82.0 °F 37.0 °F 20% 29.85 in 10.0 mi Variable 5.8 mph - N/A   Clear
12:53 PM 84.0 °F 35.1 °F 17% 29.82 in 10.0 mi South 6.9 mph - N/A   Clear
1:53 PM 86.0 °F 34.0 °F 16% 29.80 in 10.0 mi SSW 9.2 mph - N/A   Clear
2:53 PM 86.0 °F 32.0 °F 14% 29.78 in 10.0 mi SSW 4.6 mph - N/A   Clear
3:53 PM 87.1 °F 28.0 °F 12% 29.78 in 10.0 mi West 4.6 mph - N/A   Clear
4:53 PM 86.0 °F 30.0 °F 13% 29.77 in 10.0 mi West 5.8 mph - N/A   Clear
5:53 PM 84.0 °F 30.0 °F 14% 29.77 in 10.0 mi WNW 5.8 mph - N/A   Clear
6:53 PM 79.0 °F 30.9 °F 17% 29.77 in 10.0 mi North 4.6 mph - N/A   Clear
7:53 PM 77.0 °F 28.9 °F 17% 29.78 in 10.0 mi NNE 5.8 mph - N/A   Clear
8:53 PM 73.9 °F 30.0 °F 20% 29.78 in 10.0 mi ENE 3.5 mph - N/A   Clear
9:53 PM 72.0 °F 30.9 °F 22% 29.79 in 10.0 mi NE 4.6 mph - N/A   Clear
10:53 PM 72.0 °F 32.0 °F 23% 29.80 in 10.0 mi NNE 10.4 mph - N/A   Clear
11:53 PM 70.0 °F 32.0 °F 25% 29.79 in 10.0 mi Variable 3.5 mph - N/A   Clear